Time,TemperatureF,DewpointF,PressureIn,WindDirection,WindDirectionDegrees,WindSpeedMPH,WindSpeedGustMPH,Humidity,HourlyPrecipIn,Conditions,Clouds,dailyrainin,SoftwareType,DateUTC
2013-03-23 00:01:00,63.4,60.0,29.85,East,79,4.0,7.0,88,0.00,,,0.00,weatherlink.com 1.10,2013-03-23 05:01:00,
2013-03-23 00:16:00,63.4,60.0,29.85,ENE,63,3.0,7.0,88,0.00,,,0.00,weatherlink.com 1.10,2013-03-23 05:16:00,
2013-03-23 00:46:00,63.4,60.0,29.85,ENE,77,1.0,7.0,89,0.00,,,0.00,weatherlink.com 1.10,2013-03-23 05:46:00,
2013-03-23 01:16:00,63.4,60.0,29.84,East,96,3.0,7.0,89,0.00,,,0.00,weatherlink.com 1.10,2013-03-23 06:16:00,
2013-03-23 01:31:00,63.4,60.0,29.84,ENE,70,4.0,11.0,89,0.00,,,0.00,weatherlink.com 1.10,2013-03-23 06:31:00,
2013-03-23 01:46:00,63.3,60.0,29.83,East,91,0.0,10.0,89,0.00,,,0.00,weatherlink.com 1.10,2013-03-23 06:46:00,
2013-03-23 02:01:00,63.2,60.0,29.81,ENE,71,3.0,7.0,89,0.00,,,0.00,weatherlink.com 1.10,2013-03-23 07:01:00,
2013-03-23 02:16:00,63.3,60.0,29.80,WNW,295,0.0,5.0,89,0.00,,,0.00,weatherlink.com 1.10,2013-03-23 07:16:00,
2013-03-23 02:46:00,63.3,60.0,29.80,ENE,62,0.0,2.0,88,0.00,,,0.00,weatherlink.com 1.10,2013-03-23 07:46:00,
2013-03-23 03:01:00,63.3,60.0,29.81,NNE,15,1.0,3.0,88,0.00,,,0.00,weatherlink.com 1.10,2013-03-23 08:01:00,
2013-03-23 03:16:00,63.2,60.0,29.81,NE,37,1.0,3.0,88,0.00,,,0.00,weatherlink.com 1.10,2013-03-23 08:16:00,
2013-03-23 03:31:00,63.0,59.0,29.81,NNE,32,0.0,3.0,88,0.00,,,0.00,weatherlink.com 1.10,2013-03-23 08:31:00,
2013-03-23 03:46:00,62.8,59.0,29.80,East,87,0.0,3.0,88,0.00,,,0.00,weatherlink.com 1.10,2013-03-23 08:46:00,
2013-03-23 04:01:00,62.6,59.0,29.80,NE,36,0.0,2.0,88,0.00,,,0.00,weatherlink.com 1.10,2013-03-23 09:01:00,
2013-03-23 04:16:00,62.6,59.0,29.79,ENE,77,0.0,4.0,87,0.00,,,0.00,weatherlink.com 1.10,2013-03-23 09:16:00,
2013-03-23 04:31:00,62.6,58.0,29.79,East,83,1.0,4.0,86,0.00,,,0.00,weatherlink.com 1.10,2013-03-23 09:31:00,
2013-03-23 05:01:00,62.5,58.0,29.79,ESE,115,0.0,4.0,85,0.00,,,0.00,weatherlink.com 1.10,2013-03-23 10:01:00,
2013-03-23 05:17:00,62.6,58.0,29.79,East,81,1.0,3.0,85,0.00,,,0.00,weatherlink.com 1.10,2013-03-23 10:17:00,
2013-03-23 05:31:00,62.5,58.0,29.79,East,97,1.0,3.0,85,0.00,,,0.00,weatherlink.com 1.10,2013-03-23 10:31:00,
2013-03-23 05:46:00,62.4,58.0,29.79,ENE,75,0.0,2.0,86,0.00,,,0.00,weatherlink.com 1.10,2013-03-23 10:46:00,
2013-03-23 06:01:00,62.4,59.0,29.80,East,83,0.0,3.0,87,0.00,,,0.00,weatherlink.com 1.10,2013-03-23 11:01:00,
2013-03-23 06:16:00,62.5,59.0,29.80,ENE,68,1.0,4.0,87,0.00,,,0.00,weatherlink.com 1.10,2013-03-23 11:16:00,
2013-03-23 06:31:00,62.6,59.0,29.80,ENE,65,2.0,4.0,88,0.00,,,0.00,weatherlink.com 1.10,2013-03-23 11:31:00,
2013-03-23 06:46:00,62.7,59.0,29.79,ENE,68,4.0,4.0,88,0.00,,,0.00,weatherlink.com 1.10,2013-03-23 11:46:00,
2013-03-23 07:01:00,62.8,60.0,29.79,East,80,1.0,8.0,89,0.00,,,0.00,weatherlink.com 1.10,2013-03-23 12:01:00,
2013-03-23 07:17:00,63.0,60.0,29.79,NNE,29,1.0,5.0,90,0.00,,,0.00,weatherlink.com 1.10,2013-03-23 12:17:00,
2013-03-23 07:32:00,63.4,61.0,29.78,East,80,4.0,5.0,90,0.00,,,0.00,weatherlink.com 1.10,2013-03-23 12:32:00,
2013-03-23 07:47:00,63.6,61.0,29.78,ENE,69,1.0,5.0,91,0.00,,,0.00,weatherlink.com 1.10,2013-03-23 12:47:00,
2013-03-23 08:02:00,64.4,62.0,29.78,ESE,111,1.0,4.0,91,0.00,,,0.00,weatherlink.com 1.10,2013-03-23 13:02:00,
2013-03-23 08:10:00,64.7,61.7,29.78,East,98,1.0,1.0,90,0.00,,,0.00,Wunderground v.1.15,2013-03-23 13:10:00,
2013-03-23 08:17:00,65.0,62.0,29.79,East,97,3.0,5.0,90,0.00,,,0.00,weatherlink.com 1.10,2013-03-23 13:17:00,
2013-03-23 08:25:00,65.3,62.3,29.79,ENE,77,2.0,3.0,90,0.00,,,0.00,Wunderground v.1.15,2013-03-23 13:25:00,
2013-03-23 08:30:00,65.6,62.6,29.78,ENE,73,2.0,2.0,90,0.00,,,0.00,Wunderground v.1.15,2013-03-23 13:30:00,
2013-03-23 08:35:00,66.0,63.0,29.78,ENE,72,2.0,2.0,90,0.00,,,0.00,Wunderground v.1.15,2013-03-23 13:35:00,
2013-03-23 08:40:00,66.3,63.3,29.77,East,88,2.0,4.0,90,0.00,,,0.00,Wunderground v.1.15,2013-03-23 13:40:00,
2013-03-23 08:47:00,66.6,63.0,29.78,ESE,120,1.0,6.0,89,0.00,,,0.00,weatherlink.com 1.10,2013-03-23 13:47:00,
2013-03-23 08:55:00,67.3,64.3,29.78,SSE,158,2.0,2.0,90,0.00,,,0.00,Wunderground v.1.15,2013-03-23 13:55:00,
2013-03-23 09:00:00,67.8,64.4,29.78,East,94,3.0,4.0,89,0.00,,,0.00,Wunderground v.1.15,2013-03-23 14:00:00,
2013-03-23 09:05:00,68.3,64.9,29.78,East,96,3.0,4.0,89,0.00,,,0.00,Wunderground v.1.15,2013-03-23 14:05:00,
2013-03-23 09:15:00,69.4,65.7,29.79,ESE,105,2.0,2.0,88,0.00,,,0.00,Wunderground v.1.15,2013-03-23 14:15:00,
2013-03-23 09:25:00,69.2,65.5,29.78,ENE,63,3.0,3.0,88,0.00,,,0.00,Wunderground v.1.15,2013-03-23 14:25:00,
2013-03-23 09:30:00,69.1,65.7,29.79,SSE,153,3.0,3.0,89,0.00,,,0.00,Wunderground v.1.15,2013-03-23 14:30:00,
2013-03-23 09:35:00,69.0,65.6,29.79,East,89,3.0,8.0,89,0.00,,,0.00,Wunderground v.1.15,2013-03-23 14:35:00,
2013-03-23 09:40:00,68.8,65.4,29.79,ENE,74,3.0,3.0,89,0.00,,,0.00,Wunderground v.1.15,2013-03-23 14:40:00,
2013-03-23 09:47:00,68.6,66.0,29.79,ENE,77,3.0,7.0,90,0.00,,,0.00,weatherlink.com 1.10,2013-03-23 14:47:00,
2013-03-23 09:55:00,68.8,66.1,29.79,ENE,61,3.0,3.0,91,0.00,,,0.00,Wunderground v.1.15,2013-03-23 14:55:00,
2013-03-23 10:00:00,68.9,65.8,29.79,ENE,67,3.0,3.0,90,0.00,,,0.00,Wunderground v.1.15,2013-03-23 15:00:00,
2013-03-23 10:05:00,69.0,66.3,29.79,East,97,3.0,4.0,91,0.00,,,0.00,Wunderground v.1.15,2013-03-23 15:05:00,
2013-03-23 10:15:00,69.4,66.3,29.79,East,84,3.0,3.0,90,0.00,,,0.00,Wunderground v.1.15,2013-03-23 15:15:00,
2013-03-23 10:20:00,69.8,66.7,29.79,SSE,149,2.0,2.0,90,0.00,,,0.00,Wunderground v.1.15,2013-03-23 15:20:00,
2013-03-23 10:30:00,70.9,67.5,29.79,East,95,2.0,2.0,89,0.00,,,0.00,Wunderground v.1.15,2013-03-23 15:30:00,
2013-03-23 10:35:00,71.2,67.5,29.79,ENE,68,2.0,2.0,88,0.00,,,0.00,Wunderground v.1.15,2013-03-23 15:35:00,
2013-03-23 10:40:00,71.6,68.2,29.80,ESE,104,2.0,2.0,89,0.00,,,0.00,Wunderground v.1.15,2013-03-23 15:40:00,
2013-03-23 10:47:00,72.3,69.0,29.80,SSE,152,3.0,4.0,88,0.00,,,0.00,weatherlink.com 1.10,2013-03-23 15:47:00,
2013-03-23 11:02:00,72.6,68.0,29.80,ENE,68,2.0,6.0,86,0.00,,,0.00,weatherlink.com 1.10,2013-03-23 16:02:00,
2013-03-23 11:17:00,72.7,68.0,29.80,SE,132,1.0,6.0,86,0.00,,,0.00,weatherlink.com 1.10,2013-03-23 16:17:00,
2013-03-23 11:32:00,73.2,69.0,29.80,East,81,1.0,4.0,86,0.00,,,0.00,weatherlink.com 1.10,2013-03-23 16:32:00,
2013-03-23 11:47:00,74.4,70.0,29.79,ESE,113,1.0,5.0,85,0.00,,,0.00,weatherlink.com 1.10,2013-03-23 16:47:00,
2013-03-23 12:02:00,74.4,70.0,29.79,ESE,108,1.0,4.0,86,0.00,,,0.00,weatherlink.com 1.10,2013-03-23 17:02:00,
2013-03-23 12:17:00,73.1,70.0,29.77,East,100,0.0,1.0,90,0.06,,,0.06,weatherlink.com 1.10,2013-03-23 17:17:00,
2013-03-23 12:32:00,71.8,70.0,29.76,East,80,0.0,1.0,93,0.16,,,0.16,weatherlink.com 1.10,2013-03-23 17:32:00,
2013-03-23 12:47:00,70.9,69.0,29.76,West,280,0.0,0.0,94,0.19,,,0.19,weatherlink.com 1.10,2013-03-23 17:47:00,
2013-03-23 13:02:00,70.3,69.0,29.75,ENE,72,0.0,0.0,96,0.16,,,0.19,weatherlink.com 1.10,2013-03-23 18:02:00,
2013-03-23 13:10:00,70.9,70.0,29.74,East,96,0.0,0.0,97,0.00,,,0.19,Wunderground v.1.15,2013-03-23 18:10:00,
2013-03-23 13:15:00,71.3,70.4,29.74,East,87,0.0,0.0,97,0.00,,,0.19,Wunderground v.1.15,2013-03-23 18:15:00,
2013-03-23 13:20:00,72.0,71.1,29.74,ENE,57,1.0,1.0,97,0.00,,,0.19,Wunderground v.1.15,2013-03-23 18:20:00,
2013-03-23 13:25:00,72.3,70.8,29.74,East,99,1.0,1.0,95,0.00,,,0.19,Wunderground v.1.15,2013-03-23 18:25:00,
2013-03-23 13:30:00,72.4,70.6,29.73,East,84,1.0,2.0,94,0.00,,,0.19,Wunderground v.1.15,2013-03-23 18:30:00,
2013-03-23 13:35:00,72.4,70.3,29.73,NE,38,1.0,1.0,93,0.00,,,0.19,Wunderground v.1.15,2013-03-23 18:35:00,
2013-03-23 13:48:00,72.4,70.0,29.72,ENE,72,1.0,4.0,93,0.00,,,0.19,weatherlink.com 1.10,2013-03-23 18:48:00,
2013-03-23 13:55:00,72.4,69.9,29.72,ESE,117,1.0,1.0,92,0.00,,,0.19,Wunderground v.1.15,2013-03-23 18:55:00,
2013-03-23 14:00:00,72.4,69.9,29.72,East,98,1.0,1.0,92,0.00,,,0.19,Wunderground v.1.15,2013-03-23 19:00:00,
2013-03-23 14:05:00,72.4,69.9,29.72,ENE,68,1.0,1.0,92,0.00,,,0.19,Wunderground v.1.15,2013-03-23 19:05:00,
2013-03-23 14:15:00,72.6,70.5,29.71,NE,49,1.0,1.0,93,0.00,,,0.19,Wunderground v.1.15,2013-03-23 19:15:00,
2013-03-23 14:20:00,72.4,69.9,29.71,NE,46,1.0,3.0,92,0.00,,,0.19,Wunderground v.1.15,2013-03-23 19:20:00,
2013-03-23 14:25:00,72.3,69.8,29.70,ESE,103,1.0,3.0,92,0.00,,,0.19,Wunderground v.1.15,2013-03-23 19:25:00,
2013-03-23 14:30:00,72.2,69.4,29.70,ENE,77,1.0,1.0,91,0.00,,,0.19,Wunderground v.1.15,2013-03-23 19:30:00,
2013-03-23 14:48:00,73.0,70.0,29.69,East,86,0.0,4.0,91,0.00,,,0.19,weatherlink.com 1.10,2013-03-23 19:48:00,
2013-03-23 15:03:00,73.4,70.0,29.69,ENE,76,3.0,5.0,89,0.00,,,0.19,weatherlink.com 1.10,2013-03-23 20:03:00,
2013-03-23 15:18:00,72.6,70.0,29.68,SE,142,0.0,4.0,91,0.00,,,0.19,weatherlink.com 1.10,2013-03-23 20:18:00,
2013-03-23 15:30:00,72.2,69.7,29.68,East,91,0.0,5.0,92,0.00,,,0.19,Wunderground v.1.15,2013-03-23 20:30:00,
2013-03-23 15:40:00,71.9,69.8,29.67,NE,46,0.0,5.0,93,0.00,,,0.19,Wunderground v.1.15,2013-03-23 20:40:00,
2013-03-23 15:45:00,71.8,70.0,29.67,East,87,0.0,5.0,94,0.00,,,0.19,Wunderground v.1.15,2013-03-23 20:45:00,
2013-03-23 15:50:00,71.9,70.1,29.66,ENE,58,0.0,5.0,94,0.00,,,0.19,Wunderground v.1.15,2013-03-23 20:50:00,
2013-03-23 15:55:00,72.0,70.2,29.65,ENE,75,0.0,5.0,94,0.00,,,0.19,Wunderground v.1.15,2013-03-23 20:55:00,
2013-03-23 16:00:00,72.0,70.2,29.66,East,98,0.0,5.0,94,0.00,,,0.19,Wunderground v.1.15,2013-03-23 21:00:00,
2013-03-23 16:05:00,72.0,70.2,29.66,SE,124,0.0,5.0,94,0.00,,,0.19,Wunderground v.1.15,2013-03-23 21:05:00,
2013-03-23 16:15:00,71.8,70.0,29.66,ESE,111,0.0,0.0,94,0.00,,,0.19,Wunderground v.1.15,2013-03-23 21:15:00,
2013-03-23 16:20:00,71.8,70.0,29.66,ESE,110,0.0,0.0,94,0.00,,,0.19,Wunderground v.1.15,2013-03-23 21:20:00,
2013-03-23 16:30:00,72.3,70.8,29.65,SSE,152,0.0,0.0,95,0.00,,,0.19,Wunderground v.1.15,2013-03-23 21:30:00,
2013-03-23 16:40:00,72.5,70.7,29.65,East,100,0.0,0.0,94,0.00,,,0.19,Wunderground v.1.15,2013-03-23 21:40:00,
2013-03-23 16:45:00,72.7,71.2,29.64,East,79,0.0,0.0,95,0.00,,,0.19,Wunderground v.1.15,2013-03-23 21:45:00,
2013-03-23 16:50:00,72.9,71.1,29.64,ENE,76,0.0,0.0,94,0.00,,,0.19,Wunderground v.1.15,2013-03-23 21:50:00,
2013-03-23 16:55:00,72.9,71.1,29.64,North,4,1.0,1.0,94,0.00,,,0.19,Wunderground v.1.15,2013-03-23 21:55:00,
2013-03-23 17:00:00,72.9,71.1,29.64,East,79,0.0,0.0,94,0.00,,,0.19,Wunderground v.1.15,2013-03-23 22:00:00,
2013-03-23 17:05:00,73.0,71.2,29.63,NE,36,1.0,2.0,94,0.00,,,0.19,Wunderground v.1.15,2013-03-23 22:05:00,
2013-03-23 17:15:00,72.9,71.1,29.63,ENE,74,0.0,1.0,94,0.00,,,0.19,Wunderground v.1.15,2013-03-23 22:15:00,
2013-03-23 17:34:00,72.4,71.0,29.62,SSW,207,1.0,6.0,95,0.00,,,0.19,weatherlink.com 1.10,2013-03-23 22:34:00,
2013-03-23 17:48:00,72.0,71.0,29.62,ESE,121,0.0,4.0,96,0.00,,,0.19,weatherlink.com 1.10,2013-03-23 22:48:00,
2013-03-23 18:03:00,71.6,70.0,29.62,NE,48,0.0,4.0,96,0.00,,,0.19,weatherlink.com 1.10,2013-03-23 23:03:00,
2013-03-23 18:10:00,71.4,70.2,29.62,East,79,1.0,3.0,96,0.00,,,0.20,Wunderground v.1.15,2013-03-23 23:10:00,
2013-03-23 18:15:00,71.2,70.0,29.61,ENE,77,2.0,3.0,96,0.00,,,0.20,Wunderground v.1.15,2013-03-23 23:15:00,
2013-03-23 18:20:00,71.1,70.2,29.62,ENE,74,1.0,1.0,97,0.00,,,0.20,Wunderground v.1.15,2013-03-23 23:20:00,
2013-03-23 18:30:00,70.7,69.8,29.61,East,101,0.0,0.0,97,0.00,,,0.21,Wunderground v.1.15,2013-03-23 23:30:00,
2013-03-23 18:35:00,70.7,70.1,29.61,ESE,108,0.0,1.0,98,0.00,,,0.21,Wunderground v.1.15,2013-03-23 23:35:00,
2013-03-23 18:40:00,70.6,70.0,29.61,SSE,148,0.0,0.0,98,0.00,,,0.21,Wunderground v.1.15,2013-03-23 23:40:00,
2013-03-23 18:45:00,70.6,70.0,29.62,SSW,195,0.0,0.0,98,0.00,,,0.21,Wunderground v.1.15,2013-03-23 23:45:00,
2013-03-23 18:50:00,70.7,70.1,29.61,ESE,114,1.0,1.0,98,0.00,,,0.21,Wunderground v.1.15,2013-03-23 23:50:00,
2013-03-23 18:55:00,70.8,70.2,29.61,East,86,1.0,4.0,98,0.00,,,0.21,Wunderground v.1.15,2013-03-23 23:55:00,
2013-03-23 19:03:00,70.9,71.0,29.61,NE,47,0.0,4.0,99,0.02,,,0.21,weatherlink.com 1.10,2013-03-24 00:03:00,
2013-03-23 19:18:00,70.8,71.0,29.61,ENE,62,3.0,8.0,99,0.01,,,0.21,weatherlink.com 1.10,2013-03-24 00:18:00,
2013-03-23 19:33:00,70.5,70.0,29.61,ESE,115,1.0,12.0,99,0.00,,,0.21,weatherlink.com 1.10,2013-03-24 00:33:00,
2013-03-23 19:48:00,70.2,70.0,29.61,ENE,70,0.0,6.0,99,0.00,,,0.21,weatherlink.com 1.10,2013-03-24 00:48:00,
2013-03-23 19:55:00,70.1,69.8,29.61,SE,138,2.0,5.0,99,0.00,,,0.21,Wunderground v.1.15,2013-03-24 00:55:00,
2013-03-23 20:00:00,70.0,69.7,29.61,SE,136,2.0,2.0,99,0.00,,,0.21,Wunderground v.1.15,2013-03-24 01:00:00,
2013-03-23 20:05:00,69.9,69.6,29.60,ENE,75,2.0,2.0,99,0.00,,,0.21,Wunderground v.1.15,2013-03-24 01:05:00,
2013-03-23 20:15:00,69.8,69.5,29.60,SW,214,2.0,4.0,99,0.00,,,0.21,Wunderground v.1.15,2013-03-24 01:15:00,
2013-03-23 20:20:00,69.8,69.5,29.60,ESE,115,2.0,2.0,99,0.00,,,0.21,Wunderground v.1.15,2013-03-24 01:20:00,
2013-03-23 20:25:00,69.8,69.5,29.60,WSW,243,2.0,2.0,99,0.00,,,0.21,Wunderground v.1.15,2013-03-24 01:25:00,
2013-03-23 20:30:00,69.8,69.5,29.60,East,87,2.0,2.0,99,0.00,,,0.21,Wunderground v.1.15,2013-03-24 01:30:00,
2013-03-23 20:49:00,69.9,70.0,29.60,South,191,2.0,12.0,99,0.00,,,0.21,weatherlink.com 1.10,2013-03-24 01:49:00,
2013-03-23 20:55:00,69.9,69.6,29.60,North,11,1.0,1.0,99,0.00,,,0.21,Wunderground v.1.15,2013-03-24 01:55:00,
2013-03-23 21:00:00,69.9,69.6,29.60,SE,142,1.0,3.0,99,0.00,,,0.21,Wunderground v.1.15,2013-03-24 02:00:00,
2013-03-23 21:05:00,70.1,69.8,29.59,SE,143,2.0,3.0,99,0.00,,,0.21,Wunderground v.1.15,2013-03-24 02:05:00,
2013-03-23 21:15:00,70.1,69.8,29.60,SE,130,2.0,2.0,99,0.00,,,0.21,Wunderground v.1.15,2013-03-24 02:15:00,
2013-03-23 21:20:00,70.2,69.9,29.60,East,94,3.0,3.0,99,0.00,,,0.21,Wunderground v.1.15,2013-03-24 02:20:00,
2013-03-23 21:25:00,70.1,69.8,29.60,ENE,65,3.0,3.0,99,0.00,,,0.21,Wunderground v.1.15,2013-03-24 02:25:00,
2013-03-23 21:30:00,70.1,69.8,29.60,South,179,3.0,4.0,99,0.00,,,0.21,Wunderground v.1.15,2013-03-24 02:30:00,
2013-03-23 21:35:00,70.1,69.8,29.60,South,177,3.0,7.0,99,0.00,,,0.21,Wunderground v.1.15,2013-03-24 02:35:00,
2013-03-23 21:45:00,70.1,69.8,29.59,East,89,3.0,3.0,99,0.00,,,0.21,Wunderground v.1.15,2013-03-24 02:45:00,
2013-03-23 21:50:00,70.1,69.8,29.59,South,176,3.0,3.0,99,0.00,,,0.21,Wunderground v.1.15,2013-03-24 02:50:00,
2013-03-23 21:55:00,70.2,69.9,29.59,North,11,3.0,3.0,99,0.00,,,0.21,Wunderground v.1.15,2013-03-24 02:55:00,
2013-03-23 22:04:00,70.3,70.0,29.59,SSW,198,0.0,11.0,99,0.00,,,0.21,weatherlink.com 1.10,2013-03-24 03:04:00,
2013-03-23 22:10:00,70.3,70.0,29.59,SSE,163,2.0,2.0,99,0.00,,,0.21,Wunderground v.1.15,2013-03-24 03:10:00,
2013-03-23 22:15:00,70.3,70.0,29.59,SSE,160,2.0,2.0,99,0.00,,,0.21,Wunderground v.1.15,2013-03-24 03:15:00,
2013-03-23 22:34:00,70.3,70.0,29.59,SW,215,1.0,12.0,99,0.00,,,0.21,weatherlink.com 1.10,2013-03-24 03:34:00,
2013-03-23 22:49:00,70.1,70.0,29.58,East,80,3.0,9.0,99,0.00,,,0.21,weatherlink.com 1.10,2013-03-24 03:49:00,
2013-03-23 23:04:00,69.9,70.0,29.58,SSE,152,2.0,9.0,99,0.00,,,0.21,weatherlink.com 1.10,2013-03-24 04:04:00,
2013-03-23 23:19:00,69.6,69.0,29.58,South,179,4.0,8.0,99,0.00,,,0.21,weatherlink.com 1.10,2013-03-24 04:19:00,
2013-03-23 23:34:00,69.6,69.0,29.58,ESE,113,1.0,7.0,99,0.00,,,0.21,weatherlink.com 1.10,2013-03-24 04:34:00,
2013-03-23 23:49:00,69.8,70.0,29.58,South,186,0.0,8.0,100,0.00,,,0.21,weatherlink.com 1.10,2013-03-24 04:49:00,